Location: Bletchingley
(51.2333°N, 0.1000°W)
Time: 14:06:57
(UTC+00:00)

Cosmos 2266 Rocket - Pass Details

Date: 25 January 2021
Orbit: 934 x 1008 km, 82.9° (Epoch: 05 March)

Event Time Altitude Azimuth Distance (km) Brightness Sun altitude
Rises 04:20:00 0° 359° (N) 3,623 7.1 -32.2°
Reaches altitude 10° 04:25:20 10° 39° (NE) 2,660 6.8 -31.3°
Maximum altitude 04:26:27 11° 49° (NE) 2,622 6.9 -31.2°
Drops below altitude 10° 04:27:34 10° 60° (ENE) 2,654 7.0 -31.0°
Sets 04:32:50 0° 99° (E) 3,590 8.0 -30.2°
